Regional Weather Roundup
Issued by NWS

Home | Current Version | Previous Version | Text Only | Print | Product List | Glossary Off
Versions: 1 2 3 4 5 6 7 8 9 10 11 12 13 14 15 16 17 18 19 20 21 22 23 24 25 26 27 28 29 30 31 32 33 34 35 36 37 38 39 40 41 42 43 44 45 46 47 48 49 50

000
ASUS43 KMKX 170710
RWRWI

WISCONSIN REGIONAL WEATHER ROUNDUP
NATIONAL WEATHER SERVICE MILWAUKEE/SULLIVAN WI
100 AM CST WED JAN 17 2018

NOTE: "FAIR" INDICATES FEW OR NO CLOUDS BELOW 12,000 FEET WITH NO
SIGNIFICANT WEATHER AND/OR OBSTRUCTIONS TO VISIBILITY.

WIZ001-002-006>008-014>016-023>028-170800-
NORTHWEST WISCONSIN

CITY           SKY/WX    TMP DP  RH WIND       PRES   REMARKS
SUPERIOR ARPT  FAIR       4  -3  71 SW9       30.37F WCI -10
ASHLAND        FAIR       6  -2  69 SW14      30.35F WCI -11
HAYWARD        FAIR       2  -5  72 SW8       30.38F WCI -12
SIREN          FAIR       0  -5  80 SW5       30.42F WCI -10
CUMBERLAND     FAIR      -4  -8  84 SW7       30.41F WCI -18
RICE LAKE      FAIR      -1  -5  83 CALM      30.45F
CHETEK         FAIR      -3  -6  85 CALM      30.45F
LADYSMITH      FAIR      -1  -5  84 SW6       30.43F WCI -13
EAU CLAIRE     FAIR      -4  -7  87 SW6       30.48F WCI -16
MENOMONIE      FAIR      -3  -7  82 S3        30.48F
NEW RICHMOND   FAIR      -4  -9  81 S6        30.46F WCI -17
OSCEOLA        FAIR      -5  -9  83 S3        30.50F
$$

WIZ003>005-009-010-017-018-170800-
NORTH CENTRAL WISCONSIN

CITY           SKY/WX    TMP DP  RH WIND       PRES   REMARKS
MANITOWISH WTR FAIR       2   0  88 SW8       30.29F WCI -11
ARBOR VITAE    FAIR       4   1  85 SW6       30.30F WCI  -7
WOODRUFF       FAIR       4   1  85 SW6       30.30F WCI  -7
RHINELANDER    MOCLDY     3  -1  83 W8        30.32F WCI -10
EAGLE RIVER    FAIR       3  -1  81 SW7       30.28F WCI  -9
LAND O LAKES   FAIR       6   2  84 SW5       30.29F WCI  -3
PHILLIPS       FAIR      -1  -4  86 SW5       30.35F WCI -11
TOMAHAWK       FAIR       1  -3  83 W3        30.36F
MEDFORD        FAIR      -3  -6  86 W8        30.38F WCI -18
MERRILL        FAIR       1  -3  83 W6        30.39F WCI -11
$$

WIZ029-030-035-036-043>047-170800-
CENTRAL WISCONSIN

CITY           SKY/WX    TMP DP  RH WIND       PRES   REMARKS
WAUSAU         FAIR      -1  -4  87 W7        30.38F WCI -14
MOSINEE        FAIR       1  -2  85 W9        30.41F WCI -14
MARSHFIELD     FAIR      -2  -5  87 W8        30.42F WCI -17
STEVENS POINT  FAIR       1  -3  85 W6        30.44F WCI -11
WAUPACA        FAIR       7   1  74 W6        30.46S WCI  -3
WAUTOMA        FAIR       1  -3  83 W6        30.48F WCI -10
WISC RAPIDS    FAIR       1  -4  79 W6        30.47F WCI -10
CAMP DOUGLAS   FAIR       0  -4  86 W3        30.49F
$$

WIZ011>013-019>022-031-037>040-048>050-170800-
NORTHEAST WISCONSIN

CITY           SKY/WX    TMP DP  RH WIND       PRES   REMARKS
ANTIGO         FAIR       2  -1  87 W8        30.35F WCI -12
SHAWANO        FAIR      10   6  83 SW5       30.42F WCI   2
OCONTO         FAIR       8   6  89 W8        30.42S WCI  -4
STURGEON BAY   NOT AVBL
GREEN BAY      FAIR       9   4  80 SW7       30.44S WCI  -2
MANITOWOC      FAIR      11   7  84 W10       30.45F WCI  -3
APPLETON       FAIR       7   1  78 W10       30.42F WCI  -8
CLINTONVILLE   FAIR       9   1  72 W12       30.44S WCI  -6
OSHKOSH        FAIR       7   3  84 W7        30.45F WCI  -5
$$

WIZ032>034-041-042-053>061-170800-
SOUTHWEST WISCONSIN

CITY           SKY/WX    TMP DP  RH WIND       PRES   REMARKS
LA CROSSE      NOT AVBL
SPARTA         FAIR       0  -3  87 CALM      30.53S
VIROQUA        FAIR      -4  -6  91 SW9       30.48F WCI -20
BOSCOBEL       FAIR      -1  -5  82 SW6       30.57F FOG     WCI -13
PRAIRIE DU CHI FAIR      -2  -7  79 NW3       30.59S
PLATTEVILLE    FAIR      -1  -4  90 W8        30.54S WCI -16
$$

WIZ056-057-062-063-064-067-068-170800-
SOUTH CENTRAL WISCONSIN

CITY           SKY/WX    TMP DP  RH WIND       PRES   REMARKS
REEDSBURG      FAIR       3  -1  86 SW5       30.50F WCI  -7
BARABOO/DELLS  FAIR       2  -1  85 SW3       30.48F
LONE ROCK      FAIR       2  -1  88 W8        30.55F WCI -12
MINERAL POINT  FAIR       1   0  92 W6        30.50F WCI -10
MADISON        FAIR       4   1  88 CALM      30.50F
MIDDLETON      FAIR       6   3  86 W7        30.51S WCI  -5
WATERTOWN      FAIR       1   0  94 CALM      30.49F
MONROE         FAIR       5   1  85 W13       30.49F WCI -12
JANESVILLE     FAIR       5   3  92 CALM      30.52S
$$

WIZ051-052-058>065-066-070>072-170800-
SOUTHEAST WISCONSIN

CITY           SKY/WX    TMP DP  RH WIND       PRES   REMARKS
MILWAUKEE      FAIR      13   8  81 W6        30.49F WCI   4
WAUKESHA       FAIR       9   5  85 W8        30.49S WCI  -4
MILWAUKEE/TIMM FAIR       9   5  85 W5        30.50S WCI   0
RACINE         FAIR      10   6  84 W8        30.51S WCI  -2
BURLINGTON     FAIR       1  -3  83 SW7       30.50F WCI -11
KENOSHA        FAIR       8   3  80 W7        30.49F WCI  -3
FOND DU LAC    FAIR       8   2  76 SW5       30.47S WCI   0
SHEBOYGAN      FAIR      10   7  87 W9        30.45F WCI  -3
WEST BEND      FAIR      10   9  92 W9        30.46S WCI  -2
JUNEAU         FAIR       2   0  90 SW3       30.49S
$$

LSZ147-162-170800-
LAKE SUPERIOR

STATION/POSITION TIME  TEMP    WIND        PRES    WAVE
                       AIR SEA DIR/SP/G            HT/PER
                 (UTC) (F)     (DEG/KT/KT) (MB)    (FT/S)
DEVILS ISLAND    0700   12     220/ 20/ 27 1026.7F
SAXON HARBOR     0540   11     210/  9/ 12 1028.4F
$$

LMZ867-665-643>646-170800-
LAKE MICHIGAN

STATION/POSITION TIME  TEMP    WIND        PRES    WAVE
                       AIR SEA DIR/SP/G            HT/PER
                 (UTC) (F)     (DEG/KT/KT) (MB)    (FT/S)
NORTHPORT PIER   0640    9     220/  3/  8 1028.4F
KEWAUNEE LAKESHO 0642          290/  4/  6   N/A
SHEBOYGAN LAKESH 0700   13     260/ 12/ 15 1032.6F
PORT WASHINGTON  0630   13     280/  6/ 10 1033.2S
MILWAUKEE LAKESH 0650   14     290/  9/ 11   N/A
KENOSHA   LAKESH 0700   11     270/ 11/ 14 1032.5
$$

TC  - TEMPERATURE IN CELSIUS
VSB - VISIBILITY IN STATUTE MILES
WCI - WIND CHILL INDEX
HX  - HEAT INDEX




USA.gov is the U.S. government's official web portal to all federal, state and local government web resources and services.